Estherville, IA

9:53 AM CST on December 13, 2017 (GMT -0600)
Estherville Municipal

Weather History for KEST - January, 2011

Change the Weather History Date:

Monday, January 24, 2011

  Actual Average Record
Temperature  
Mean Temperature 20 °F 16 °F  
Max Temperature 31 °F 25 °F 58 °F (1981)
Min Temperature 8 °F 7 °F -23 °F (1961)
Degree Days  
Heating Degree Days 45 49  
Month to date heating degree days 1353 1189  
Since 1 July heating degree days 4246 4332  
Cooling Degree Days 0 0  
Month to date cooling degree days 0 0  
Year to date cooling degree days 0 0  
Moisture  
Dew Point 12 °F    
Average Humidity 86    
Maximum Humidity 92    
Minimum Humidity 80    
Precipitation  
Precipitation T in 0.02 in 0.32 in (1967)
Month to date precipitation 0.05 0.32  
Year to date precipitation 0.05  
Sea Level Pressure  
Sea Level Pressure 29.95 in    
Wind  
Wind Speed 15 mph (West)    
Max Wind Speed 22 mph    
Max Gust Speed 25 mph    
Visibility 8 miles    
Events Snow    
T = Trace of Precipitation, MM = Missing Value Source: NWS Daily Summary

Daily Weather History Graph

Daily Weather History Graph

Search for Another Location

Airport or City:

Trip Planner

Search our weather history database for the weather conditions in past years. The results will help you decide how hot, cold, wet, or windy it might be!

Date:

Astronomy

Jan. 24, 2011 Rise Set
Actual Time 7:42 AM CST 5:19 PM CST
Civil Twilight 7:11 AM CST 5:50 PM CST
Nautical Twilight 6:37 AM CST 6:25 PM CST
Astronomical Twilight 6:03 AM CST 6:59 PM CST
Moon 11:46 PM CST (1/24) 9:58 AM CST (1/24)
Length of Visible Light 10h 38m
Length of Day
9h 36m
Waning Gibbous, 70% of the Moon is Illuminated
Jan 24
Waning Gibbous
Jan 26
Last Quarter
Feb 2
New
Feb 11
First Quarter
Feb 18
Full

Hourly Weather History & Observations

Time (CST) Temp. Windchill Dew Point Humidity Pressure Visibility Wind Dir Wind Speed Gust Speed Precip Events Conditions
12:08 AM 8.6 °F -10.0 °F 5.0 °F 85% 29.83 in 2.0 mi South 18.4 mph - N/A   Overcast
12:21 AM 8.6 °F -8.9 °F 5.0 °F 85% 29.83 in 3.0 mi South 16.1 mph - N/A   Overcast
12:44 AM 8.6 °F -8.9 °F 5.0 °F 85% 29.82 in 3.0 mi South 16.1 mph - N/A   Overcast
12:52 AM 8.1 °F -11.7 °F 5.0 °F 87% 29.90 in 3.0 mi South 20.7 mph - N/A   Overcast
1:04 AM 8.6 °F -9.5 °F 5.0 °F 85% 29.80 in 3.0 mi South 17.3 mph - N/A   Overcast
1:52 AM 9.0 °F -7.9 °F 6.1 °F 88% 29.90 in 5.0 mi South 15.0 mph - N/A   Overcast
2:17 AM 10.4 °F -6.0 °F 6.8 °F 85% 29.81 in 7.0 mi SSW 15.0 mph 24.2 mph N/A   Scattered Clouds
2:52 AM 9.0 °F -7.9 °F 5.0 °F 84% 29.90 in 9.0 mi SSW 15.0 mph - N/A   Clear
3:34 AM 10.4 °F -6.6 °F 6.8 °F 85% 29.81 in 8.0 mi SSW 16.1 mph - N/A   Mostly Cloudy
3:52 AM 10.0 °F -5.9 °F 6.1 °F 84% 29.89 in 8.0 mi SSW 13.8 mph - N/A   Mostly Cloudy
4:05 AM 10.4 °F -6.0 °F 5.0 °F 79% 29.80 in 8.0 mi SSW 15.0 mph - N/A   Scattered Clouds
4:52 AM 9.0 °F -7.3 °F 5.0 °F 84% 29.89 in 8.0 mi SSW 13.8 mph - N/A   Clear
5:52 AM 8.1 °F -7.0 °F 5.0 °F 87% 29.89 in 8.0 mi SW 11.5 mph - N/A   Clear
6:52 AM 9.0 °F -7.9 °F 5.0 °F 84% 29.91 in 8.0 mi SW 15.0 mph - N/A   Clear
7:52 AM 9.0 °F -5.9 °F 5.0 °F 84% 29.92 in 6.0 mi WSW 11.5 mph - N/A   Clear
8:52 AM 10.0 °F -4.5 °F 7.0 °F 87% 29.93 in 6.0 mi WSW 11.5 mph - N/A   Clear
9:52 AM 12.9 °F -1.6 °F 10.0 °F 88% 29.96 in 7.0 mi West 12.7 mph - N/A   Partly Cloudy
10:14 AM 15.8 °F 1.4 °F 12.2 °F 86% 29.87 in 7.0 mi West 13.8 mph - N/A   Mostly Cloudy
10:52 AM 18.0 °F 4.2 °F 14.0 °F 84% 29.97 in 8.0 mi West 13.8 mph - N/A   Scattered Clouds
11:02 AM 21.2 °F 8.3 °F 15.8 °F 80% 29.90 in 8.0 mi West 13.8 mph - N/A   Mostly Cloudy
11:37 AM 24.8 °F 13.4 °F 19.4 °F 80% 29.90 in 10.0 mi West 12.7 mph - N/A   Overcast
11:52 AM 25.0 °F 13.1 °F 21.0 °F 85% 29.97 in 10.0 mi West 13.8 mph - N/A   Overcast
12:47 PM 28.4 °F 16.2 °F 24.8 °F 86% 29.90 in 5.0 mi West 17.3 mph - N/A   Overcast
12:52 PM 28.0 °F 16.1 °F 24.1 °F 85% 29.96 in 5.0 mi West 16.1 mph - 0.00 in Snow Light Snow
1:52 PM 28.9 °F 16.9 °F 25.0 °F 85% 29.96 in 8.0 mi West 17.3 mph - 0.00 in   Overcast
2:52 PM 30.9 °F 19.8 °F 27.0 °F 85% 29.97 in 10.0 mi WNW 16.1 mph - N/A   Overcast
3:52 PM 30.9 °F 20.2 °F 27.0 °F 85% 29.99 in 10.0 mi WNW 15.0 mph - N/A   Overcast
4:52 PM 30.9 °F 20.2 °F 28.0 °F 89% 30.02 in 8.0 mi WNW 15.0 mph - N/A   Overcast
5:52 PM 21.9 °F 8.2 °F 18.0 °F 85% 30.07 in 10.0 mi NNW 16.1 mph - N/A   Overcast
6:34 PM 21.2 °F 6.0 °F 15.8 °F 80% 30.02 in 9.0 mi NNW 19.6 mph - N/A   Overcast
6:52 PM 19.0 °F 4.5 °F 15.1 °F 85% 30.10 in 10.0 mi NNW 16.1 mph - N/A   Overcast
7:52 PM 18.0 °F 2.6 °F 14.0 °F 84% 30.12 in 10.0 mi NW 17.3 mph - N/A   Overcast
8:52 PM 17.1 °F 2.5 °F 12.9 °F 84% 30.13 in 10.0 mi NNW 15.0 mph - N/A   Overcast
9:52 PM 17.1 °F 4.3 °F 12.0 °F 81% 30.15 in 10.0 mi NNW 11.5 mph - N/A   Overcast
10:18 PM 15.8 °F 2.7 °F 10.4 °F 79% 30.08 in 10.0 mi NNW 11.5 mph - N/A   Overcast
10:52 PM 16.0 °F 2.3 °F 10.9 °F 81% 30.15 in 10.0 mi NW 12.7 mph - N/A   Overcast
11:52 PM 15.1 °F -0.6 °F 10.0 °F 80% 30.17 in 10.0 mi NNW 16.1 mph - N/A   Overcast